Charleston, WV

2:18 PM EDT on May 27, 2017 (GMT -0400)
Yeager Airport

Weather History for KCRW - March, 2014

Change the Weather History Date:

Sunday, March 9, 2014

  Actual Average Record
Temperature  
Mean Temperature 43 °F 43 °F  
Max Temperature 52 °F 53 °F 81 °F (1974)
Min Temperature 34 °F 33 °F 10 °F (1996)
Degree Days  
Heating Degree Days 22 22  
Month to date heating degree days 267 207  
Since 1 July heating degree days 4034 3661  
Cooling Degree Days 0 0  
Month to date cooling degree days 0 0  
Year to date cooling degree days 0 0  
Moisture  
Dew Point 29 °F    
Average Humidity 61    
Maximum Humidity 82    
Minimum Humidity 39    
Precipitation  
Precipitation T in 0.13 in 1.13 in (1905)
Month to date precipitation 1.14 1.15  
Year to date precipitation 8.20 7.34  
Snow  
Snow 0.00 in - - ()
Month to date snowfall 5.2  
Since 1 September snowfall 42.9  
Snow Depth 0.00 in    
Sea Level Pressure  
Sea Level Pressure 30.13 in    
Wind  
Wind Speed 5 mph (NW)    
Max Wind Speed 18 mph    
Max Gust Speed 26 mph    
Visibility 9 miles    
Events      
T = Trace of Precipitation, MM = Missing Value Source: NWS Daily Summary

Daily Weather History Graph

Daily Weather History Graph

Search for Another Location

Airport or City:

Trip Planner

Search our weather history database for the weather conditions in past years. The results will help you decide how hot, cold, wet, or windy it might be!

Date:

Astronomy

Mar. 09, 2014 Rise Set
Actual Time 7:46 AM EDT 7:27 PM EDT
Civil Twilight 7:20 AM EDT 7:54 PM EDT
Nautical Twilight 6:49 AM EDT 8:24 PM EDT
Astronomical Twilight 6:18 AM EDT 8:55 PM EDT
Moon 1:22 PM EDT (3/9) 3:07 AM EDT (3/9)
Length of Visible Light 12h 33m
Length of Day
11h 40m
First Quarter, 61% of the Moon is Illuminated
Mar 9
First Quarter
Mar 16
Full
Mar 23
Last Quarter
Mar 30
New
Apr 7
First Quarter

Hourly Weather History & Observations

Time (EDT) Temp. Windchill Dew Point Humidity Pressure Visibility Wind Dir Wind Speed Gust Speed Precip Events Conditions
12:54 AM 50.0 °F - 35.1 °F 57% 30.03 in 10.0 mi NNW 13.8 mph 20.7 mph N/A   Overcast
1:54 AM 44.1 °F 39.5 °F 37.0 °F 76% 30.08 in 7.0 mi North 8.1 mph 16.1 mph N/A   Overcast
3:03 AM 43.0 °F 38.2 °F 37.0 °F 80% 30.08 in 7.0 mi NNW 8.1 mph 17.3 mph N/A   Overcast
3:54 AM 42.1 °F 36.1 °F 36.0 °F 79% 30.10 in 7.0 mi NNW 10.4 mph - N/A   Overcast
4:54 AM 39.9 °F 37.8 °F 34.0 °F 79% 30.12 in 7.0 mi North 3.5 mph - N/A   Overcast
5:54 AM 37.9 °F 32.1 °F 32.0 °F 79% 30.13 in 7.0 mi North 8.1 mph - N/A   Overcast
6:54 AM 37.0 °F 31.6 °F 32.0 °F 82% 30.17 in 7.0 mi NNW 6.9 mph - N/A   Overcast
7:54 AM 35.1 °F 30.1 °F 30.0 °F 82% 30.20 in 8.0 mi NNW 5.8 mph - N/A   Overcast
8:54 AM 35.1 °F 31.0 °F 30.0 °F 82% 30.22 in 7.0 mi NW 4.6 mph - N/A   Overcast
9:54 AM 35.1 °F 31.0 °F 30.0 °F 82% 30.24 in 7.0 mi NNW 4.6 mph - N/A   Overcast
10:54 AM 36.0 °F 32.1 °F 30.0 °F 79% 30.23 in 7.0 mi NNW 4.6 mph - 0.00 in   Overcast
11:54 AM 37.9 °F 32.1 °F 27.0 °F 65% 30.23 in 10.0 mi West 8.1 mph - N/A   Overcast
12:54 PM 39.9 °F 37.8 °F 25.0 °F 55% 30.22 in 10.0 mi Variable 3.5 mph - N/A   Mostly Cloudy
1:54 PM 43.0 °F 39.5 °F 26.1 °F 51% 30.19 in 10.0 mi Variable 5.8 mph - N/A   Scattered Clouds
2:54 PM 44.1 °F 40.1 °F 26.1 °F 49% 30.16 in 10.0 mi SW 6.9 mph - N/A   Partly Cloudy
3:54 PM 46.0 °F 43.1 °F 26.1 °F 46% 30.12 in 10.0 mi WSW 5.8 mph - N/A   Partly Cloudy
4:54 PM 48.0 °F - 25.0 °F 41% 30.10 in 10.0 mi West 4.6 mph - N/A   Partly Cloudy
5:54 PM 50.0 °F - 26.1 °F 39% 30.09 in 10.0 mi WNW 3.5 mph - N/A   Partly Cloudy
6:54 PM 48.0 °F - 27.0 °F 44% 30.08 in 10.0 mi WSW 5.8 mph - N/A   Partly Cloudy
7:54 PM 46.0 °F 43.1 °F 27.0 °F 47% 30.08 in 10.0 mi WSW 5.8 mph - N/A   Partly Cloudy
8:54 PM 45.0 °F - 27.0 °F 49% 30.08 in 10.0 mi Calm Calm - N/A   Clear
9:54 PM 41.0 °F - 28.0 °F 60% 30.08 in 10.0 mi Calm Calm - N/A   Clear
10:54 PM 37.9 °F - 27.0 °F 65% 30.07 in 10.0 mi Calm Calm - N/A   Clear
11:54 PM 37.0 °F 34.5 °F 28.0 °F 70% 30.05 in 10.0 mi SSE 3.5 mph - N/A   Clear
12:54 AM 35.1 °F - 28.0 °F 76% 30.05 in 10.0 mi Calm Calm - N/A   Clear